User: anonymous   Login
Location: Unspecified
(0.0000°N, 0.0000°E)
Time: 10:19:26
(UTC+00:00)
Language:

GONETS M 13 (M23) - Orbit

View from above orbital plane
View from above orbital plane
View from above satellite
View from above satellite

Ground track
Ground track

The orbit data is extracted from the following two-line orbital elements,

1 40554U 15020C   17080.82774516 +.00000010 +00000-0 +00000-0 0  9993
2 40554 082.4898 333.3194 0013126 124.2312 236.0016 12.42890864089596
Epoch (UTC): 21 March 2017 19:51:57
Eccentricity: 0.0013126
inclination: 82.4898°
perigee height: 1484 km
apogee height: 1505 km
right ascension of ascending node: 333.3194°
argument of perigee: 124.2312°
revolutions per day: 12.42890864
mean anomaly at epoch: 236.0016°
orbit number at epoch: 8959

The dashed part of the orbit path shows where the satellite is in the earth's shadow,  

DLR